Overview Statistics Trail Chart Weather Telemetry Raw packets
 

This is the latest recevied weather packets stored in our database for station/object G6UIM-13. If no packets are shown the sender has not sent any weather packets the latest 10 day(s).

<< 15 16 17 18 19 20 21 >>
Time Temp. Humidity Pressure Rain* Wind** Luminosity Snow
1788530834 18.33° C 71% 1019.1 hPa 0 mm - - -
1788530589 18.89° C 71% 1019.2 hPa 0 mm - - -
1788530339 18.89° C 70% 1019.2 hPa 0 mm - - -
1788530044 18.89° C 70% 1019.3 hPa 0 mm - - -
1788529749 18.89° C 69% 1019.2 hPa 0 mm - - -
1788529504 19.44° C 69% 1019.2 hPa 0 mm - - -
1788529214 19.44° C 68% 1019 hPa 0 mm - - -
1788528928 19.44° C 68% 1019 hPa 0 mm - - -
1788528667 19.44° C 68% 1018.8 hPa 0 mm - - -
1788528414 19.44° C 68% 1018.7 hPa 0 mm - - -
1788528134 19.44° C 68% 1018.8 hPa 0 mm - - -
1788527859 19.44° C 68% 1018.7 hPa 0 mm - - -
1788527585 19.44° C 67% 1018.6 hPa 0 mm - - -
1788527304 19.44° C 66% 1018.5 hPa 0 mm - - -
1788527014 20° C 64% 1018.4 hPa 0 mm - - -
1788526739 20° C 62% 1018.3 hPa 0 mm - - -
1788526454 20° C 66% 1018.2 hPa 0 mm - - -
1788526179 20° C 64% 1018.2 hPa 0 mm - - -
1788525904 20° C 65% 1018.1 hPa 0 mm - - -
1788525649 20° C 65% 1018.1 hPa 0 mm - - -
1788525404 20.56° C 68% 1018 hPa 0 mm - - -
1788525134 20.56° C 69% 1018.1 hPa 0 mm - - -
1788524859 20.56° C 68% 1018.1 hPa 0 mm - - -
1788524574 20.56° C 68% 1018.1 hPa 0 mm - - -
1788524274 20.56° C 69% 1018.1 hPa 0 mm - - -

* Rain latest hour (hover to see other rain measurements)
** Current wind speed in m/s (hover to see current wind gust speed)